This is the latest recevied weather packets stored in our database for station/object W7TTE. If no packets are shown the sender has not sent any weather packets the latest 10 day(s).
| Time | Temp. | Humidity | Pressure | Rain* | Wind** | Luminosity | Snow |
|---|---|---|---|---|---|---|---|
| 1777508924 | 30° C | 16% | 1013 hPa | 0 mm | - | 86 W/m² | - |
| 1777508621 | 30° C | 16% | 1012.7 hPa | 0 mm | - | 92 W/m² | - |
| 1777508319 | 30° C | 17% | 1012.7 hPa | 0 mm | - | 117 W/m² | - |
| 1777502863 | 31.67° C | 15% | 1013.1 hPa | 0 mm | - | 278 W/m² | - |
| 1777502560 | 31.67° C | 14% | 1013.1 hPa | 0 mm | - | 261 W/m² | - |
| 1777502257 | 31.67° C | 14% | 1013.3 hPa | 0 mm | - | 290 W/m² | - |
| 1777501954 | 31.67° C | 14% | 1013.4 hPa | 0 mm | - | 548 W/m² | - |
| 1777501651 | 32.22° C | 13% | 1013.6 hPa | 0 mm | - | 323 W/m² | - |
| 1777501347 | 31.67° C | 14% | 1013.5 hPa | 0 mm | - | 396 W/m² | - |
| 1777501045 | 31.67° C | 13% | 1013.8 hPa | 0 mm | - | 335 W/m² | - |
| 1777500440 | 32.22° C | 13% | 1013.8 hPa | 0 mm | - | 522 W/m² | - |
| 1777500135 | 32.22° C | 14% | 1014 hPa | 0 mm | - | 387 W/m² | - |
| 1777499833 | 31.67° C | 14% | 1014 hPa | 0 mm | - | 446 W/m² | - |
| 1777498620 | 31.67° C | 14% | 1014.6 hPa | 0 mm | - | 537 W/m² | - |
| 1777498316 | 31.67° C | 15% | 1014.8 hPa | 0 mm | - | 633 W/m² | - |
| 1777498015 | 31.67° C | 14% | 1014.5 hPa | 0 mm | - | 522 W/m² | - |
| 1777491342 | 30.56° C | 16% | 1015.8 hPa | 0 mm | - | 786 W/m² | - |
| 1777491039 | 30.56° C | 16% | 1015.9 hPa | 0 mm | - | 785 W/m² | - |
| 1777489522 | 30° C | 17% | 1016.6 hPa | 0 mm | - | 784 W/m² | - |
| 1777488009 | 29.44° C | 17% | 1016.8 hPa | 0 mm | - | 773 W/m² | - |
| 1777487706 | 30° C | 18% | 1016.8 hPa | 0 mm | - | 769 W/m² | - |
| 1777485280 | 28.89° C | 18% | 1017.3 hPa | 0 mm | - | 720 W/m² | - |
| 1777484370 | 28.33° C | 18% | 1017.5 hPa | 0 mm | - | 698 W/m² | - |
| 1777483160 | 27.22° C | 19% | 1017.4 hPa | 0 mm | - | 668 W/m² | - |
| 1777482857 | 27.22° C | 18% | 1017.5 hPa | 0 mm | - | 638 W/m² | - |
* Rain latest hour (hover to see other rain measurements)
** Current wind speed in m/s (hover to see current wind gust speed)